Hourly Weather Ali-Yurt

Today, 5 December, Saturday

Time Temperature Precipitation Wind Pressure Humidity
00:00 +2°C° 0 mm 0 mps 708 mmHg 91%
01:00 +2°C° 0 mm 0 mps 708 mmHg 92%
02:00 +2°C° 0 mm 0 mps 708 mmHg 92%
03:00 +2°C° 0 mm 1 mps 708 mmHg 91%
04:00 +1°C° 0 mm 0 mps 708 mmHg 91%
05:00 +1°C° 0 mm 0 mps 708 mmHg 91%
06:00 +1°C° 0 mm 0 mps 708 mmHg 91%
07:00 +1°C° 0 mm 0 mps 708 mmHg 89%
08:00 +2°C° 0 mm 0 mps 708 mmHg 87%
09:00 +2°C° 0 mm 0 mps 708 mmHg 84%
10:00 +3°C° 0 mm 1 mps 708 mmHg 84%
11:00 +4°C° 0 mm 1 mps 708 mmHg 85%
12:00 +4°C° 0 mm 1 mps 707 mmHg 85%
13:00 +4°C° 0.1 mm 1 mps 707 mmHg 88%
14:00 +3°C° 0.1 mm 1 mps 707 mmHg 91%
15:00 +3°C° 0 mm 1 mps 707 mmHg 93%
16:00 +3°C° 0.2 mm 1 mps 707 mmHg 94%
17:00 +3°C° 0.2 mm 1 mps 707 mmHg 95%
18:00 +3°C° 0.2 mm 1 mps 707 mmHg 96%
19:00 +3°C° 0.1 mm 1 mps 708 mmHg 96%
20:00 +2°C° 0.1 mm 1 mps 708 mmHg 96%
21:00 +2°C° 0.1 mm 1 mps 708 mmHg 96%
22:00 +2°C° 0.2 mm 1 mps 708 mmHg 96%
23:00 +2°C° 0.2 mm 1 mps 708 mmHg 96%

Tomorrow, 6 December, Sunday

Time Temperature Precipitation Wind Pressure Humidity
00:00 +2°C° 0.2 mm 1 mps 708 mmHg 96%
01:00 +1°C° 0.2 mm 2 mps 708 mmHg 96%
02:00 +1°C° 0.2 mm 2 mps 708 mmHg 96%
03:00 +1°C° 0.2 mm 2 mps 708 mmHg 96%
04:00 -1°C° 0.3 mm 2 mps 708 mmHg 96%
05:00 -1°C° 0.3 mm 2 mps 707 mmHg 95%
06:00 -1°C° 0.3 mm 2 mps 707 mmHg 95%
07:00 -1°C° 0.2 mm 2 mps 707 mmHg 95%
08:00 -1°C° 0.2 mm 2 mps 707 mmHg 94%
09:00 -1°C° 0.2 mm 3 mps 707 mmHg 93%
10:00 -1°C° 0.2 mm 3 mps 707 mmHg 93%
11:00 -1°C° 0.2 mm 3 mps 707 mmHg 93%
12:00 -1°C° 0.2 mm 3 mps 707 mmHg 92%
13:00 -1°C° 0.3 mm 2 mps 707 mmHg 93%
14:00 -1°C° 0.3 mm 2 mps 706 mmHg 94%
15:00 -1°C° 0.3 mm 2 mps 706 mmHg 95%
16:00 -1°C° 0.2 mm 2 mps 707 mmHg 95%
17:00 -1°C° 0.2 mm 2 mps 707 mmHg 95%
18:00 -1°C° 0.2 mm 2 mps 707 mmHg 96%
19:00 -1°C° 0.1 mm 2 mps 708 mmHg 96%
20:00 -1°C° 0.1 mm 2 mps 708 mmHg 95%
21:00 -1°C° 0.1 mm 2 mps 708 mmHg 95%
22:00 +1°C° 0.1 mm 1 mps 708 mmHg 95%
23:00 +1°C° 0.1 mm 1 mps 708 mmHg 96%

Day after tomorrow, 7 December, Monday

Time Temperature Precipitation Wind Pressure Humidity
00:00 +1°C° 0.1 mm 1 mps 708 mmHg 96%
01:00 +1°C° 0.1 mm 1 mps 708 mmHg 96%
02:00 +1°C° 0.1 mm 1 mps 708 mmHg 95%
03:00 +1°C° 0.1 mm 1 mps 708 mmHg 95%
04:00 +1°C° 0.1 mm 1 mps 708 mmHg 95%
05:00 0°C° 0.1 mm 1 mps 708 mmHg 95%
06:00 0°C° 0.1 mm 1 mps 708 mmHg 95%
07:00 +1°C° 0 mm 1 mps 708 mmHg 93%
08:00 +1°C° 0 mm 1 mps 708 mmHg 92%
09:00 +1°C° 0 mm 1 mps 709 mmHg 90%
10:00 +1°C° 0 mm 1 mps 708 mmHg 86%
11:00 +2°C° 0 mm 1 mps 708 mmHg 83%
12:00 +1°C° 0 mm 2 mps 708 mmHg 80%
13:00 +1°C° 0 mm 2 mps 707 mmHg 79%
14:00 +1°C° 0 mm 2 mps 707 mmHg 79%
15:00 +2°C° 0 mm 1 mps 707 mmHg 79%
16:00 +2°C° 0 mm 1 mps 708 mmHg 81%
17:00 +1°C° 0 mm 1 mps 708 mmHg 83%
18:00 +1°C° 0 mm 1 mps 708 mmHg 85%
19:00 +1°C° 0 mm 1 mps 708 mmHg 86%
20:00 0°C° 0 mm 1 mps 708 mmHg 88%
21:00 0°C° 0 mm 1 mps 708 mmHg 89%
22:00 0°C° 0 mm 1 mps 708 mmHg 89%
23:00 -2°C° 0 mm 0 mps 708 mmHg 90%

8 December, Tuesday

Time Temperature Precipitation Wind Pressure Humidity
00:00 -2°C° 0 mm 0 mps 708 mmHg 90%
01:00 -2°C° 0 mm 0 mps 707 mmHg 91%
02:00 -2°C° 0 mm 0 mps 707 mmHg 91%
03:00 -2°C° 0 mm 0 mps 707 mmHg 91%
04:00 -2°C° 0 mm 0 mps 707 mmHg 91%
05:00 -2°C° 0 mm 0 mps 707 mmHg 90%
06:00 -2°C° 0 mm 0 mps 707 mmHg 90%
07:00 -2°C° 0 mm 0 mps 707 mmHg 88%
08:00 -1°C° 0 mm 0 mps 707 mmHg 85%
09:00 -1°C° 0 mm 0 mps 707 mmHg 83%
10:00 +1°C° 0 mm 1 mps 707 mmHg 81%
11:00 +1°C° 0 mm 1 mps 707 mmHg 78%
12:00 +2°C° 0 mm 1 mps 706 mmHg 76%
13:00 +2°C° 0 mm 1 mps 706 mmHg 77%
14:00 +2°C° 0 mm 1 mps 706 mmHg 78%
15:00 +2°C° 0 mm 1 mps 706 mmHg 78%
16:00 +1°C° 0 mm 1 mps 707 mmHg 80%
17:00 0°C° 0 mm 0 mps 707 mmHg 82%
18:00 0°C° 0 mm 0 mps 707 mmHg 84%
19:00 0°C° 0 mm 0 mps 707 mmHg 84%
20:00 -1°C° 0 mm 0 mps 707 mmHg 84%
21:00 -1°C° 0 mm 0 mps 707 mmHg 83%
22:00 -1°C° 0 mm 0 mps 707 mmHg 84%
23:00 -1°C° 0 mm 0 mps 707 mmHg 85%

9 December, Wednesday

Time Temperature Precipitation Wind Pressure Humidity
00:00 -1°C° 0 mm 0 mps 707 mmHg 86%
01:00 -1°C° 0 mm 0 mps 707 mmHg 87%
02:00 -1°C° 0 mm 0 mps 707 mmHg 87%
03:00 -2°C° 0 mm 0 mps 707 mmHg 88%
04:00 -2°C° 0 mm 0 mps 707 mmHg 88%
05:00 -2°C° 0 mm 0 mps 707 mmHg 88%
06:00 -2°C° 0 mm 0 mps 706 mmHg 88%
07:00 -2°C° 0 mm 0 mps 707 mmHg 86%
08:00 -1°C° 0 mm 0 mps 707 mmHg 83%
09:00 0°C° 0 mm 0 mps 707 mmHg 80%
10:00 +1°C° 0 mm 1 mps 707 mmHg 77%
11:00 +2°C° 0 mm 1 mps 707 mmHg 73%
12:00 +3°C° 0 mm 1 mps 707 mmHg 70%
13:00 +3°C° 0 mm 1 mps 707 mmHg 72%
14:00 +3°C° 0 mm 1 mps 707 mmHg 73%
15:00 +3°C° 0 mm 1 mps 706 mmHg 74%
16:00 +1°C° 0 mm 0 mps 707 mmHg 78%
17:00 0°C° 0 mm 0 mps 707 mmHg 82%
18:00 0°C° 0 mm 0 mps 707 mmHg 85%
19:00 0°C° 0 mm 0 mps 707 mmHg 85%
20:00 -1°C° 0 mm 0 mps 707 mmHg 86%
21:00 -1°C° 0 mm 0 mps 707 mmHg 86%
22:00 -1°C° 0 mm 0 mps 707 mmHg 86%
23:00 -1°C° 0 mm 0 mps 707 mmHg 86%

10 December, Thursday

Time Temperature Precipitation Wind Pressure Humidity
00:00 -1°C° 0 mm 0 mps 707 mmHg 86%
01:00 -1°C° 0 mm 0 mps 707 mmHg 86%
02:00 -1°C° 0 mm 0 mps 707 mmHg 86%
03:00 -1°C° 0 mm 0 mps 708 mmHg 87%
04:00 -1°C° 0 mm 0 mps 708 mmHg 87%
05:00 -1°C° 0 mm 0 mps 707 mmHg 87%
06:00 -1°C° 0 mm 0 mps 707 mmHg 88%
07:00 -1°C° 0 mm 0 mps 708 mmHg 84%
08:00 0°C° 0 mm 0 mps 708 mmHg 81%
09:00 +1°C° 0 mm 0 mps 708 mmHg 78%
10:00 +1°C° 0 mm 0 mps 708 mmHg 75%
11:00 +3°C° 0 mm 1 mps 708 mmHg 72%
12:00 +4°C° 0 mm 1 mps 708 mmHg 69%
13:00 +4°C° 0 mm 1 mps 708 mmHg 70%
14:00 +4°C° 0 mm 1 mps 707 mmHg 71%
15:00 +4°C° 0 mm 1 mps 707 mmHg 73%
16:00 +3°C° 0 mm 1 mps 707 mmHg 77%
17:00 +2°C° 0 mm 1 mps 707 mmHg 82%
18:00 0°C° 0 mm 0 mps 707 mmHg 86%
19:00 0°C° 0 mm 0 mps 707 mmHg 86%
20:00 0°C° 0 mm 0 mps 707 mmHg 86%
21:00 0°C° 0 mm 0 mps 707 mmHg 86%
22:00 0°C° 0 mm 0 mps 707 mmHg 86%
23:00 0°C° 0 mm 0 mps 707 mmHg 87%
Show more